Weather History for KFMN - June, 2013

Change the Weather History Date:

Monday, June 3, 2013

  Actual Average Record
Temperature  
Mean Temperature 71 °F -  
Max Temperature 88 °F 82 °F 93 °F (2004)
Min Temperature 54 °F 47 °F 39 °F (2011)
Cooling Degree Days 6    
Growing Degree Days 21 (Base 50)    
Moisture  
Dew Point 26 °F    
Average Humidity 18    
Maximum Humidity 37    
Minimum Humidity 4    
Precipitation  
Precipitation 0.00 in - - ()
Sea Level Pressure  
Sea Level Pressure 29.77 in    
Wind  
Wind Speed 8 mph (North)    
Max Wind Speed 21 mph    
Max Gust Speed 56 mph    
Visibility 10 miles    
Events Rain    
Averages and records for this station are not official NWS values.
T = Trace of Precipitation, MM = Missing Value Source: NWS Daily Summary

Daily Weather History Graph

Daily Weather History Graph

Search for Another Location

Airport or City:

Trip Planner

Search our weather history database for the weather conditions in past years. The results will help you decide how hot, cold, wet, or windy it might be!

Date:

Astronomy

Jun. 03, 2013 Rise Set
Actual Time 5:54 AM MDT 8:27 PM MDT
Civil Twilight 5:24 AM MDT 8:58 PM MDT
Nautical Twilight 4:47 AM MDT 9:35 PM MDT
Astronomical Twilight 4:05 AM MDT 10:17 PM MDT
Moon 2:47 AM MDT (6/3) 4:06 PM MDT (6/3)
Length of Visible Light 15h 33m
Length of Day
14h 32m
Waning Crescent, 21% of the Moon is Illuminated
Jun 3
Waning Crescent
Jun 8
New
Jun 16
First Quarter
Jun 23
Full
Jun 29
Last Quarter

Hourly Weather History & Observations

Time (MDT) Temp. Dew Point Humidity Pressure Visibility Wind Dir Wind Speed Gust Speed Precip Events Conditions
12:53 AM 72.0 °F 25.0 °F 17% 29.73 in 10.0 mi SSW 5.8 mph - N/A   Clear
1:53 AM 70.0 °F 25.0 °F 18% 29.73 in 10.0 mi SSW 6.9 mph - N/A   Clear
2:53 AM 61.0 °F 28.0 °F 29% 29.74 in 10.0 mi East 6.9 mph - N/A   Clear
3:53 AM 60.1 °F 30.0 °F 32% 29.74 in 10.0 mi East 9.2 mph - N/A   Clear
4:53 AM 59.0 °F 30.9 °F 35% 29.76 in 10.0 mi East 12.7 mph - N/A   Clear
5:53 AM 55.9 °F 30.0 °F 37% 29.78 in 10.0 mi ENE 8.1 mph - N/A   Clear
6:53 AM 57.0 °F 30.9 °F 37% 29.82 in 10.0 mi East 9.2 mph - N/A   Clear
7:53 AM 63.0 °F 33.1 °F 33% 29.82 in 10.0 mi ENE 8.1 mph - N/A   Clear
8:53 AM 69.1 °F 33.1 °F 26% 29.82 in 10.0 mi East 6.9 mph - N/A   Clear
9:53 AM 75.0 °F 33.1 °F 22% 29.81 in 10.0 mi Variable 5.8 mph - N/A   Clear
10:53 AM 80.1 °F 30.9 °F 17% 29.80 in 10.0 mi Variable 3.5 mph - N/A   Clear
11:53 AM 84.9 °F 27.0 °F 12% 29.78 in 10.0 mi WNW 9.2 mph 17.3 mph N/A   Clear
12:53 PM 82.9 °F 25.0 °F 12% 29.76 in 10.0 mi West 20.7 mph 27.6 mph N/A   Partly Cloudy
1:53 PM 82.0 °F 26.1 °F 13% 29.75 in 10.0 mi Variable 3.5 mph 18.4 mph N/A   Clear
2:53 PM 87.1 °F 23.0 °F 10% 29.74 in 10.0 mi West 15.0 mph 21.9 mph N/A   Clear
3:53 PM 81.0 °F 23.0 °F 12% 29.77 in 9.0 mi SW 6.9 mph 56.4 mph 0.00 in Rain Light Rain
4:53 PM 84.9 °F 19.9 °F 9% 29.76 in 10.0 mi Calm Calm - 0.00 in   Clear
5:53 PM 87.1 °F 17.1 °F 8% 29.74 in 10.0 mi West 17.3 mph 26.5 mph N/A   Clear
6:53 PM 84.9 °F 21.9 °F 10% 29.75 in 10.0 mi West 11.5 mph - N/A   Clear
7:53 PM 82.0 °F 21.0 °F 10% 29.75 in 10.0 mi West 6.9 mph - N/A   Clear
8:53 PM 75.0 °F 23.0 °F 14% 29.76 in 10.0 mi West 3.5 mph - N/A   Clear
9:53 PM 73.9 °F 21.0 °F 14% 29.76 in 10.0 mi Calm Calm - N/A   Clear
10:53 PM 60.1 °F 21.0 °F 22% 29.80 in 10.0 mi ENE 3.5 mph - N/A   Clear
11:53 PM 57.9 °F 21.0 °F 24% 29.79 in 10.0 mi NNE 3.5 mph - N/A   Clear